11:55
Airports
History
Links
Donate
Help keep this website running!
PayPal
Bitcoin
This page is community maintained. The information is intended for PC simulator navigation or reference.
Always use approved charts for navigation.
CYMY
EAR FALLS
EAR FALLS (CYMY)
Ontario, Canada
(U)
Lat/Lng:50° 43' 3.51" N / 93° 23' 0.5" W
50.717641 / -93.383472
Elevation:1269'ft / 387mMSL
ID / ICAO:CYMY
Runways:1
Longest:10-28
Asphalt 1,207m / 3,960ft
Nearby Weather11:00 GMT 2018-01-23
Nearby weather at CYRL, RED LAKE located 30.0 nautical miles from CYMY
Altimeter: 30.09
Visibility: 15.0 statute miles
Wind: 8 knots (from 110°)
Temp: -16°c / 3°f
Humidity: 84.5%

METAR: CYRL 231100Z 11008KT 15SM -SN SCT010 OVC024 M16/M18 A3009 RMK SC3SC5 SLP227

(Powered by phpweather)
Airport Radio Frequencies
CTAF/UNICOM: 122.8
Nearby VORs <50NM
Nearby NDBs
Runway 10 / 28
Dimensions:1207 x 30.5m 3960' x 100'ft
Surface:Asphalt
Edge Lights:Low intensity
Runway 10 [A]Runway 28 [B]
Heading:100°TH 280°TH
Lat:
Lng:
50° 43' 7.01"N
93° 23' 31"W
50° 43' 0"N
93° 22' 30"W
User Notes and Comments
50° 43' 3.51" N / 93° 23' 0.5" W
Distance To
Airport ID:
Nearby Airports
(U) RED LAKE 30.0 NM
CYRL ( WX ) NW 323°
(U) DRYDEN RGNL 67.4 NM
CYHD SSE 155°
(U) SIOUX LOOKOUT 77.3 NM
CYXL ( WX ) ESE 122°
(U) KENORA 77.4 NM
CYQK ( WX ) SSW 213°
(U) IGNACE MUNI 115.6 NM
CZUC SE 140°
(U) LAC DU BONNET 119.0 NM
CYAX WSW 255°
4 Northwest Angle 120.5 NM
72Y SW 218°
VFR Chart
Flight Planning at SkyVector.com